Weather History for Jefferson City, MO

Change the Weather History Date:

Wednesday, January 30, 2013

  Actual Average Record
Temperature  
Mean Temperature 40 °F -  
Max Temperature 53 °F 41 °F 68 °F (2012)
Min Temperature 27 °F 18 °F -6 °F (1966)
Degree Days  
Heating Degree Days 24    
Moisture  
Dew Point 30 °F    
Average Humidity 75    
Maximum Humidity 89    
Minimum Humidity 58    
Precipitation  
Precipitation 0.05 in - - ()
Sea Level Pressure  
Sea Level Pressure 29.61 in    
Wind  
Wind Speed 13 mph (WNW)    
Max Wind Speed 31 mph    
Max Gust Speed 37 mph    
Visibility 9 miles    
Events Rain , Snow    
Averages and records for this station are not official NWS values.
T = Trace of Precipitation, MM = Missing Value Source: NWS Daily Summary

Daily Weather History Graph

Daily Weather History Graph

Search for Another Location

Airport:

Trip Planner

Search our weather history database for the weather conditions in past years. The results will help you decide how hot, cold, wet, or windy it might be!

Date:

Astronomy

Jan. 30, 2013 Rise Set
Actual Time 7:15 AM CST 5:28 PM CST
Civil Twilight 6:47 AM CST 5:56 PM CST
Nautical Twilight 6:15 AM CST 6:28 PM CST
Astronomical Twilight 5:44 AM CST 6:59 PM CST
Moon 9:24 PM CST 8:47 AM CST
Length of Visible Light 11h 09m
Length of Day
10h 12m
Waning Gibbous, 87% of the Moon is Illuminated
Jan 30
Waning Gibbous
Feb 3
Last Quarter
Feb 10
New
Feb 17
First Quarter
Feb 25
Full

Hourly Weather History & Observations

Time (CST) Temp. Windchill Dew Point Humidity Pressure Visibility Wind Dir Wind Speed Gust Speed Precip Events Conditions
12:53 AM 53.1 °F - 48.9 °F 86% 29.45 in 10.0 mi Calm Calm - 0.00 in   Overcast
1:50 AM 51.8 °F - 48.2 °F 88% 29.41 in 10.0 mi ESE 8.1 mph - 0.02 in   Scattered Clouds
1:53 AM 52.0 °F - 48.9 °F 89% 29.38 in 10.0 mi SE 4.6 mph - 0.02 in   Scattered Clouds
2:00 AM 51.8 °F - 48.2 °F 88% 29.40 in 10.0 mi Calm Calm - N/A   Mostly Cloudy
2:25 AM 51.8 °F - 48.2 °F 88% 29.38 in 10.0 mi ESE 3.5 mph - N/A   Overcast
2:53 AM 52.0 °F - 48.0 °F 86% 29.36 in 10.0 mi SSE 3.5 mph - N/A   Overcast
3:38 AM 51.8 °F - 46.4 °F 82% 29.40 in 7.0 mi West 31.1 mph 36.8 mph 0.01 in   Squalls
3:43 AM 46.4 °F 38.7 °F 42.8 °F 87% 29.40 in 4.0 mi West 20.7 mph 36.8 mph 0.03 in Rain Heavy Rain
3:51 AM 46.4 °F 39.2 °F 41.0 °F 81% 29.42 in 7.0 mi West 18.4 mph - 0.03 in Rain Light Rain
3:53 AM 46.0 °F 39.0 °F 41.0 °F 83% 29.38 in 9.0 mi West 17.3 mph 26.5 mph 0.03 in Rain Light Rain
3:59 AM 44.6 °F 37.2 °F 41.0 °F 87% 29.41 in 10.0 mi WNW 17.3 mph - 0.00 in   Overcast
4:53 AM 42.1 °F 34.2 °F 37.9 °F 85% 29.44 in 8.0 mi West 16.1 mph 20.7 mph 0.00 in   Overcast
5:50 AM 41.0 °F 33.9 °F 35.6 °F 81% 29.47 in 10.0 mi West 12.7 mph - N/A   Overcast
5:53 AM 41.0 °F 34.3 °F 36.0 °F 82% 29.44 in 10.0 mi West 11.5 mph - N/A   Overcast
6:53 AM 39.0 °F 31.4 °F 35.1 °F 86% 29.47 in 10.0 mi WNW 12.7 mph 19.6 mph N/A   Overcast
7:53 AM 37.9 °F 29.6 °F 33.1 °F 83% 29.49 in 10.0 mi West 13.8 mph - N/A   Overcast
8:53 AM 36.0 °F 24.4 °F 32.0 °F 86% 29.52 in 6.0 mi WNW 23.0 mph 31.1 mph 0.00 in   Overcast
9:13 AM 35.6 °F 24.5 °F 28.4 °F 75% 29.56 in 10.0 mi WNW 20.7 mph 31.1 mph 0.00 in   Drizzle
9:53 AM 33.1 °F 20.9 °F 27.0 °F 78% 29.57 in 5.0 mi WNW 21.9 mph 33.4 mph 0.00 in Snow Light Snow
10:53 AM 32.0 °F 19.8 °F 24.1 °F 73% 29.61 in 8.0 mi WNW 20.7 mph 32.2 mph 0.00 in Snow Light Snow
11:53 AM 30.0 °F 16.3 °F 21.0 °F 69% 29.64 in 10.0 mi WNW 24.2 mph 36.8 mph 0.00 in   Overcast
12:53 PM 30.0 °F 16.9 °F 21.0 °F 69% 29.65 in 4.0 mi WNW 21.9 mph 32.2 mph 0.00 in Snow Light Snow
1:53 PM 30.0 °F 16.3 °F 21.9 °F 72% 29.67 in 4.0 mi WNW 24.2 mph 35.7 mph 0.00 in Snow Light Snow
2:53 PM 30.0 °F 19.5 °F 21.0 °F 69% 29.70 in 10.0 mi WNW 13.8 mph 25.3 mph 0.00 in   Overcast
3:53 PM 30.0 °F 17.2 °F 19.9 °F 66% 29.75 in 10.0 mi WNW 20.7 mph 28.8 mph N/A   Overcast
4:53 PM 30.0 °F 17.5 °F 18.0 °F 61% 29.80 in 10.0 mi WNW 19.6 mph 33.4 mph 0.00 in   Overcast
5:00 PM 30.2 °F 16.8 °F 17.6 °F 60% 29.82 in 10.0 mi WNW 23.0 mph 34.5 mph N/A   Overcast
5:33 PM 28.4 °F 17.0 °F 19.4 °F 69% 29.84 in 8.0 mi WNW 15.0 mph 25.3 mph 0.00 in Snow Light Snow
5:53 PM 28.9 °F 16.1 °F 17.1 °F 61% 29.83 in 10.0 mi West 19.6 mph 32.2 mph 0.00 in   Overcast
6:16 PM 28.4 °F 15.1 °F 17.6 °F 64% 29.86 in 10.0 mi WNW 20.7 mph - N/A   Overcast
6:53 PM 28.0 °F 15.7 °F 16.0 °F 61% 29.86 in 10.0 mi WNW 17.3 mph 29.9 mph 0.00 in   Overcast
7:53 PM 28.0 °F 14.9 °F 16.0 °F 61% 29.90 in 10.0 mi WNW 19.6 mph 25.3 mph 0.00 in   Overcast
8:53 PM 28.0 °F 14.6 °F 17.1 °F 63% 29.93 in 9.0 mi West 20.7 mph 26.5 mph 0.00 in Snow Light Snow
9:53 PM 28.0 °F 15.3 °F 16.0 °F 61% 29.94 in 10.0 mi West 18.4 mph - 0.00 in   Overcast
10:53 PM 28.0 °F 15.3 °F 15.1 °F 58% 29.96 in 10.0 mi West 18.4 mph 26.5 mph 0.00 in   Overcast
11:53 PM 27.0 °F 15.6 °F 15.1 °F 61% 29.97 in 9.0 mi WNW 13.8 mph - 0.00 in Snow Light Snow